Home   Weather   Chesterfield   Past weeks

Flag for United Kingdom Past Weather in Chesterfield, England, United Kingdom — Yesterday and Last 2 Weeks

Now
34 °F

Fog.


Feels Like: 29 °F
Forecast: 30 / 40 °F
Wind: 6 mph from Northwest

Location: Nottingham Weather Centre

Current Time: Jan 23, 2017 at 6:39:29 am

Latest Report: Jan 23, 2017 at 6:00 am


Visibility: 1 mi

Pressure: 30.34 "Hg

Humidity: 97%

Dew Point: 33 °F

Location of ChesterfieldLocation

Past Weather in Chesterfield — Graph

°F

Chesterfield Temperature Yesterday

Maximum temperature yesterday: 37 °F (at 7:00 pm)
Minimum temperature yesterday: 26 °F (at 5:00 am)
Average temperature yesterday: 33 °F

High & Low Weather Summary for the Past Weeks

 TemperatureHumidityPressure
High51 °F (Jan 11, 6:00 am)100% (Jan 15, 5:00 am)30.67 "Hg (Jan 15, 5:00 am)
Low26 °F (Jan 22, 5:00 am)57% (Jan 11, 4:00 pm)29.41 "Hg (Jan 12, 6:00 pm)
Average40 °F90%30.21 "Hg
* Reported Jan 8 5:00 am — Jan 23 5:00 am, Chesterfield, Weather by CustomWeather, © 2017

Note: Actual official high and low records may vary slightly from our data, if they occured in-between our weather recording intervals... More about our weather records

Advertising

Chesterfield Weather History for the Previous 24 Hours

Scroll right to see more
 ConditionsComfort  
Time TempWeatherWind HumidityBarometerVisibility
5:00 am
Mon, Jan 23
35 °FFog.7 mph97%30.34 "Hg1 mi
4:00 am35 °FFog.3 mph96%30.34 "Hg1 mi
3:00 am36 °FFog.5 mph95%30.34 "Hg1 mi
2:00 am35 °FFog.6 mph95%30.34 "Hg1 mi
1:00 am35 °FFog.6 mph95%30.34 "Hg2 mi
12:00 am36 °FSmoke.3 mph93%30.35 "Hg2 mi
11:00 pm
Sun, Jan 22
36 °FSmoke.5 mph92%30.35 "Hg2 mi
10:00 pm36 °FSmoke.3 mph91%30.34 "Hg2 mi
9:00 pm36 °FSmoke.2 mph91%30.34 "Hg2 mi
8:00 pm37 °FSmoke.5 mph89%30.33 "Hg3 mi
7:00 pm37 °FSmoke.6 mph88%30.33 "Hg3 mi
6:00 pm36 °FSmoke.3 mph88%30.32 "Hg3 mi
5:00 pm36 °FSmoke.2 mph88%30.31 "Hg3 mi
4:00 pm36 °FSmoke.1 mph88%30.30 "Hg3 mi
3:00 pm36 °FSmoke.2 mph87%30.30 "Hg3 mi
2:00 pm35 °FSmoke.2 mph87%30.30 "Hg3 mi
1:00 pm34 °FSmoke.3 mph87%30.31 "Hg3 mi
12:00 pm33 °FSmoke.2 mph89%30.32 "Hg4 mi
11:00 am32 °FSmoke.3 mph90%30.32 "Hg4 mi
10:00 am31 °FSmoke.2 mph90%30.32 "Hg4 mi
9:00 am30 °FSmoke.3 mph93%30.30 "Hg4 mi
8:00 am28 °FSmoke.2 mph94%30.30 "Hg4 mi
7:00 am28 °FSmoke.5 mph94%30.29 "Hg4 mi
6:00 am27 °FFog.3 mph97%30.29 "Hg4 mi
Weather by CustomWeather, © 2017

See weather overviewHow to use our weather pages